Regional Weather Roundup
Issued by NWS Jackson, KY

Home | Current Version | Previous Version | Text Only | Print | Product List | Glossary Off
Versions: 1 2 3 4 5 6 7 8 9 10 11 12 13 14 15 16 17 18 19 20 21 22 23 24 25 26 27

000
ASUS43 KJKL 262210
RWRJKL

EAST KENTUCKY HOURLY WEATHER ROUNDUP
NATIONAL WEATHER SERVICE JACKSON KY
500 PM EST SUN FEB 26 2017

NOTE: "FAIR" INDICATES FEW OR NO CLOUDS BELOW 12,000 FEET WITH
NO SIGNIFICANT WEATHER AND/OR OBSTRUCTIONS TO VISIBILITY.

* THESE REPORTS ARE NOT UNDER NWS QUALITY CONTROL AND MAY NOT
  REPORT WEATHER SUCH AS PRECIPITATION AND FOG.

KYZ079-080-083-085-087-088-110-112-115-119-120-262300
...EASTERN KENTUCKY...

CITY           SKY/WX    TMP DP  RH WIND       PRES   REMARKS
JACKSON        SUNNY     48  15  26 CALM      30.18S
LONDON         SUNNY     48  12  23 VRB5      30.17F
SOMERSET*      SUNNY     50  14  23 W5        30.18F
MONTICELLO*    SUNNY     51  15  23 W8        30.18F
WILLIAMSBURG*  CLEAR     50  16  25 SE8       30.16F
MIDDLESBORO*   SUNNY     49  16  26 S5        30.20S
HARLAN APT*    CLEAR     48  14  25 CALM      30.17F
PIKE CO APT*     N/A     46  14  28 CALM      30.18S
BIG SANDY APT* CLEAR     47  14  26 S7        30.19S
MOREHEAD APT*  CLEAR     46  14  27 W5        30.19S
ASHLAND*       SUNNY     37  16  41 W3        30.17S
$$

KYZ035-036-041-042-044-050-067-078-099-262300
...CENTRAL KENTUCKY...

CITY           SKY/WX    TMP DP  RH WIND       PRES   REMARKS
FLEMING/MASON* SUNNY     45  18  33 SW10      30.19S
DANVILLE*      SUNNY     46  18  31 S9        30.18S
LEXINGTON      SUNNY     48  15  26 S8        30.16F
FRANKFORT      SUNNY     49  12  22 S9        30.15S
LOUISVILLE     PTSUNNY   50  11  20 S12       30.15S
LEBANON*         N/A     48  16  27 S10       30.17R
GLASGOW*       SUNNY     51  16  24 SW7       30.16S
BOWLING GREEN  CLOUDY    54  14  20 S7        30.15F
$$

KYZ091>093-OHZ055-061-077-WVZ005-015-034-035-042-262300
...SOUTHERN OHIO/WEST VIRGINIA...

CITY           SKY/WX    TMP DP  RH WIND       PRES   REMARKS
COVINGTON      PTSUNNY   46  13  26 SW7       30.14S
COLUMBUS       MOSUNNY   45  16  31 SW15      30.14S
DAYTON         PTSUNNY   42  16  34 SW18      30.12S
WILMINGTON     SUNNY     43  17  35 S13       30.14R
HUNTINGTON     SUNNY     47  12  24 S9        30.18S
CHARLESTON     MOSUNNY   46   9  22 SW8       30.18S
PINEVILLE*     SUNNY     44   4  19 MISG      30.23S
BECKLEY        SUNNY     42   8  24 NW8       30.16R
BLUEFIELD      SUNNY     40   9  28 NW7       30.16R
LOGAN CO APT*    N/A     45  12  26 SW6       30.18R
$$

VAZ002-007-008-TNZ017-027-036-066-071-262300
...SOUTHWEST VIRGINIA/EAST TENNESSEE...

CITY           SKY/WX    TMP DP  RH WIND       PRES   REMARKS
WISE*          SUNNY     45  10  24 CALM      30.16S
JONESVILLE*      N/A     48  16  27 CALM      30.20F
ABINGDON*      SUNNY     47  15  28 SW6       30.18S
BRISTOL        MOSUNNY   48  16  27 CALM      30.19S
MORRISTOWN*    CLEAR     48  16  27 CALM      30.18S
SEVIERVILLE*   CLEAR     50  12  22 VRB5      30.18S
KNOXVILLE      MOSUNNY   52  11  19 VRB3      30.18F
LAFOLLETTE*    CLEAR     50  16  25 S5        30.21S
OAK RIDGE      SUNNY     52  12  20 S5        30.20F
CROSSVILLE     SUNNY     49  16  26 S7        30.15F
NASHVILLE      PTSUNNY   54  16  22 S8        30.15S
$$

...KEY TO REMARKS...
VSB - VISIBILITY IN MILES
WCI - WIND CHILL INDEX
HX  - HEAT INDEX

$$




USA.gov is the U.S. government's official web portal to all federal, state and local government web resources and services.